Weather Roundup
Issued by NWS

Home | Current Version | Previous Version | Text Only | Print | Product List | Glossary On
Versions: 1 2 3 4 5 6 7 8 9 10 11 12 13 14 15 16 17 18 19 20 21 22 23 24 25 26 27 28 29 30 31 32 33 34 35 36 37 38 39 40 41 42 43 44 45 46 47 48 49 50
000
NZUS93 KARX 292310
HRRWXR

CURRENT HOURLY OBSERVATIONS ACROSS
MUCH OF THE UPPER MISSISSIPPI VALLEY
NATIONAL WEATHER SERVICE LA CROSSE WI
600 PM CDT FRI MAY 29 2015


...SOUTHEAST MINNESOTA...


CITY           SKY/WX    TMP DP  RH WIND       PRES   REMARKS
ROCHESTER      LGT RAIN  64  62  93 E5        29.91S
ROCHESTER/MAYO CLOUDY    65  65 100 CALM      29.90S
WINONA         LGT RAIN  66  64  94 CALM      29.88S
AUSTIN         LGT RAIN  66  64  94 E7        29.87F
ALBERT LEA     LGT RAIN  68  63  83 N18G24    29.88R
DODGE CENTER   CLOUDY    66  63  88 E9        29.89S
PRESTON        CLOUDY    66  61  84 N7        29.89F
OWATONNA       RAIN      66  63  88 CALM      29.89S
FARIBAULT      RAIN      64  63  94 N10       29.90S
$$

...ELSEWHERE IN MINNESOTA...


CITY           SKY/WX    TMP DP  RH WIND       PRES   REMARKS
MINNEAPOLIS    RAIN      65  62  90 N15G24    29.91R FOG
INTNL FALLS    CLOUDY    50  40  68 N17G24    30.09R
DULUTH         CLOUDY    54  49  83 NW15G26   29.98R
RED WING       CLOUDY    70  64  83 N3        29.88S
REDWOOD FALLS  LGT RAIN  56  53  90 N14G23    29.97S
MANKATO        CLOUDY    64  61  88 N13       29.91R
WORTHINGTON    CLOUDY    54  46  76 N28G33    29.99R
FAIRMONT       CLOUDY    63  57  82 NW13      29.91R
$$

...SOUTHWEST WISCONSIN...


CITY           SKY/WX    TMP DP  RH WIND       PRES   REMARKS
LA CROSSE      CLOUDY    68  65  90 N15       29.87R
PRAIRIE DU CHI CLOUDY    78  60  53 SW9       29.85F
BOSCOBEL       CLOUDY    80  64  58 SW6       29.85F
LONE ROCK      PTSUNNY   79  66  64 SW7       29.86F
PLATTEVILLE    PTSUNNY   75  68  79 S8        29.88F
FORT MC COY    RAIN      70  64  81 NE3       29.88S
CAMP DOUGLAS   CLOUDY    77  68  73 N13       29.86R
VIROQUA        MOCLDY    75  63  66 SW7       29.88S
WIS DELLS      MOSUNNY   76  65  67 SW6       29.87S
$$

...ELSEWHERE IN WISCONSIN...


CITY           SKY/WX    TMP DP  RH WIND       PRES   REMARKS
MILWAUKEE      LGT RAIN  73  68  84 SW6       29.88F
MADISON        LGT RAIN  76  66  71 CALM      29.87F
GREEN BAY      PTSUNNY   76  67  73 S10       29.86F
EAU CLAIRE     LGT RAIN  67  64  90 VRB7      29.87F
BLACK RVR FLS  HVY RAIN  68  68  99 CALM      29.89R
MEDFORD        DRIZZLE   66  64  91 W7        29.90S
WAUSAU         LGT RAIN  66  64  93 W3        29.87S
WIS RAPIDS     TSTM      65  62  90 NW16G23   29.91R FOG
MARSHFIELD     LGT RAIN  67  63  87 W6        29.89S
RICE LAKE      CLOUDY    64  61  89 CALM      29.93S
$$

...NORTHEAST IOWA...


CITY           SKY/WX    TMP DP  RH WIND       PRES   REMARKS
DECORAH        LGT RAIN  66  64  94 CALM      29.87F
MASON CITY     CLOUDY    70  66  87 SW6       29.88F
CHARLES CITY   CLOUDY    70  70 100 S7        29.88F
OELWEIN        CLOUDY    68  64  88 SW10G17   29.89F FOG
$$

...ELSEWHERE IN IOWA...


CITY           SKY/WX    TMP DP  RH WIND       PRES   REMARKS
DES MOINES     CLOUDY    75  64  68 SW16      29.88F
IOWA CITY      PTSUNNY   74  65  73 W13       29.91S
FORT DODGE     CLOUDY    73  63  68 NW12G18   29.88R
$$

...NORTHERN ILLINOIS...


CITY           SKY/WX    TMP DP  RH WIND       PRES   REMARKS
CHICAGO-OHARE  PTSUNNY   80  64  58 SW13G23   29.89F
CHICAGO-MIDWAY PTSUNNY   82  65  56 SW16G23   29.89F
MOLINE         PTSUNNY   78  64  61 W9        29.89S
ROCKFORD       PTSUNNY   79  64  60 W6        29.90F
PEORIA         MOSUNNY   83  65  54 SW9       29.92S
$$

NOTE: "FAIR" INDICATES FEW OR NO CLOUDS BELOW 12,000 FEET WITH NO
SIGNIFICANT WEATHER AND/OR OBSTRUCTIONS TO VISIBILITY. WIND
SPEEDS ARE IN MILES-PER-HOUR.



USA.gov is the U.S. government's official web portal to all federal, state and local government web resources and services.